| time (UTC) | temp F | wind direction | speed knots | gust knots | rain 1hr in | rain 24hr in | rain mn in | humidity % | barometer mb |
| 20260508024616 | 56 | 68 | 0.9 | 3.5 | 0.00 | 0.04 | 0.69 | 97 | 994.2 |
| 20260508024106 | 56 | 90 | 1.7 | 3.5 | 0.01 | 0.04 | 0.69 | 97 | 994.5 |
| 20260508022536 | 56 | 68 | 1.7 | 6.1 | 0.02 | 0.04 | 0.69 | 97 | 994.9 |
| 20260508022025 | 57 | 68 | 2.6 | 6.1 | 0.02 | 0.04 | 0.69 | 97 | 995.1 |
| 20260508021516 | 56 | 68 | 2.6 | 7.0 | 0.02 | 0.04 | 0.69 | 97 | 994.8 |
| 20260508021006 | 57 | 45 | 3.5 | 7.0 | 0.04 | 0.04 | 0.69 | 97 | 995.2 |
| 20260508020456 | 57 | 68 | 1.7 | 3.5 | 0.04 | 0.04 | 0.69 | 97 | 995.1 |
| 20260508015945 | 57 | 23 | 1.7 | 5.2 | 0.04 | 0.04 | 0.69 | 97 | 995.3 |
| 20260508014924 | 57 | 90 | 2.6 | 5.2 | 0.04 | 0.04 | 0.69 | 96 | 995.2 |
| 20260508014415 | 57 | 45 | 1.7 | 5.2 | 0.04 | 0.04 | 0.69 | 96 | 995.3 |
| 20260508013904 | 57 | 68 | 1.7 | 5.2 | 0.02 | 0.02 | 0.67 | 96 | 995.5 |
| 20260508013354 | 57 | 90 | 1.7 | 6.1 | 0.01 | 0.01 | 0.66 | 96 | 995.5 |
| 20260508012844 | 57 | 68 | 3.5 | 6.1 | 0.01 | 0.01 | 0.66 | 96 | 995.6 |
| 20260508012333 | 57 | 68 | 1.7 | 6.1 | 0.01 | 0.01 | 0.66 | 96 | 995.6 |
| 20260508011824 | 57 | 68 | 1.7 | 6.1 | 0.01 | 0.01 | 0.66 | 96 | 995.7 |
| 20260508011313 | 57 | 45 | 1.7 | 6.1 | 0.01 | 0.01 | 0.66 | 96 | 995.6 |
| 20260508010804 | 57 | 45 | 1.7 | 5.2 | 0.00 | 0.00 | 0.65 | 95 | 995.9 |
| 20260508010254 | 57 | 45 | 0.9 | 6.1 | 0.00 | 0.00 | 0.65 | 95 | 995.6 |
| 20260508005743 | 57 | 68 | 1.7 | 6.1 | 0.00 | 0.00 | 0.65 | 95 | 995.7 |
| 20260508005233 | 57 | 23 | 2.6 | 6.1 | 0.00 | 0.00 | 0.65 | 95 | 995.8 |
| 20260508004723 | 57 | 68 | 1.7 | 6.1 | 0.00 | 0.00 | 0.65 | 95 | 995.9 |
| 20260508004213 | 57 | 23 | 3.5 | 6.1 | 0.00 | 0.00 | 0.65 | 94 | 996.1 |
| 20260508003703 | 57 | 45 | 1.7 | 7.8 | 0.00 | 0.00 | 0.65 | 94 | 996.0 |
| 20260508003152 | 57 | 45 | 2.6 | 7.8 | 0.00 | 0.00 | 0.65 | 94 | 996.1 |
| 20260508002642 | 57 | 90 | 3.5 | 7.8 | 0.00 | 0.00 | 0.65 | 94 | 996.1 |
| 20260508002132 | 58 | 45 | 3.5 | 7.0 | 0.00 | 0.00 | 0.65 | 93 | 996.2 |
| 20260508001111 | 58 | 45 | 3.5 | 7.0 | 0.00 | 0.00 | 0.65 | 93 | 996.5 |
| 20260508000618 | 58 | 113 | 4.3 | 7.8 | 0.00 | 0.00 | 0.65 | 93 | 996.5 |
| 20260508000053 | 58 | 90 | 3.5 | 12.2 | 0.00 | 0.00 | 0.65 | 93 | 996.4 |
| 20260507235544 | 58 | 68 | 6.1 | 12.2 | 0.00 | 0.00 | 0.65 | 93 | 996.7 |
| 20260507235031 | 58 | 68 | 3.5 | 9.6 | 0.00 | 0.00 | 0.65 | 93 | 996.6 |
| 20260507234520 | 58 | 0 | 3.5 | 7.8 | 0.00 | 0.00 | 0.65 | 93 | 996.8 |
| 20260507234011 | 59 | 23 | 2.6 | 7.8 | 0.00 | 0.00 | 0.65 | 93 | 997.0 |
| 20260507232951 | 59 | 23 | 3.5 | 7.8 | 0.00 | 0.00 | 0.65 | 94 | 996.9 |
| 20260507232441 | 59 | 45 | 3.5 | 6.1 | 0.00 | 0.00 | 0.65 | 94 | 996.6 |
| 20260507231930 | 59 | 23 | 1.7 | 6.1 | 0.00 | 0.00 | 0.65 | 94 | 996.5 |
| 20260507231420 | 60 | 68 | 2.6 | 9.6 | 0.00 | 0.00 | 0.65 | 93 | 996.4 |
| 20260507230910 | 60 | 45 | 1.7 | 9.6 | 0.00 | 0.00 | 0.65 | 93 | 996.5 |
| 20260507230359 | 60 | 45 | 1.7 | 7.0 | 0.00 | 0.00 | 0.65 | 93 | 996.2 |
| 20260507225850 | 60 | 68 | 3.5 | 7.0 | 0.00 | 0.00 | 0.65 | 92 | 996.1 |
| 20260507225340 | 60 | 68 | 1.7 | 7.0 | 0.00 | 0.00 | 0.65 | 92 | 995.8 |
| 20260507224829 | 60 | 68 | 1.7 | 5.2 | 0.00 | 0.00 | 0.65 | 91 | 995.8 |
| 20260507224319 | 60 | 0 | 1.7 | 5.2 | 0.00 | 0.00 | 0.65 | 91 | 996.0 |
| 20260507223810 | 60 | 68 | 1.7 | 3.5 | 0.00 | 0.00 | 0.65 | 90 | 995.8 |
| 20260507223259 | 61 | 45 | 1.7 | 3.5 | 0.00 | 0.00 | 0.65 | 91 | 995.7 |
| 20260507222749 | 61 | 90 | 0.9 | 1.7 | 0.00 | 0.00 | 0.65 | 91 | 995.8 |
| 20260507222239 | 61 | 68 | 0.9 | 3.5 | 0.00 | 0.00 | 0.65 | 90 | 995.6 |
| 20260507221728 | 61 | 45 | 1.7 | 3.5 | 0.00 | 0.00 | 0.65 | 90 | 995.8 |
| 20260507221218 | 61 | 45 | 1.7 | 1.7 | 0.00 | 0.00 | 0.65 | 90 | 995.9 |
| 20260507220708 | 61 | 45 | 0.9 | 1.7 | 0.00 | 0.00 | 0.65 | 90 | 995.8 |
| 20260507215648 | 61 | 45 | 0.0 | 1.7 | 0.00 | 0.00 | 0.65 | 89 | 996.0 |
| 20260507215138 | 61 | 113 | 0.0 | 0.0 | 0.00 | 0.00 | 0.65 | 89 | 995.7 |
| 20260507214627 | 61 | 45 | 0.0 | 3.5 | 0.00 | 0.00 | 0.65 | 89 | 995.6 |
| 20260507214117 | 61 | 45 | 0.0 | 3.5 | 0.00 | 0.00 | 0.65 | 89 | 995.4 |
| 20260507213608 | 61 | 45 | 0.0 | 1.7 | 0.00 | 0.00 | 0.65 | 89 | 995.4 |
| 20260507213057 | 61 | 45 | 0.9 | 1.7 | 0.00 | 0.00 | 0.65 | 89 | 995.8 |
| 20260507212547 | 61 | 45 | 0.9 | 1.7 | 0.00 | 0.00 | 0.65 | 88 | 995.5 |
| 20260507212037 | 62 | 0 | 0.0 | 1.7 | 0.00 | 0.00 | 0.65 | 88 | 995.3 |
| 20260507211527 | 62 | 68 | 0.0 | 1.7 | 0.00 | 0.00 | 0.65 | 87 | 995.2 |
| 20260507211017 | 62 | 0 | 0.0 | 0.0 | 0.00 | 0.00 | 0.65 | 87 | 995.2 |
| 20260507210512 | 62 | 0 | 0.0 | 0.0 | 0.00 | 0.00 | 0.65 | 87 | 995.5 |
| 20260507205956 | 62 | 0 | 0.0 | 1.7 | 0.00 | 0.00 | 0.65 | 86 | 995.6 |
| 20260507205447 | 62 | 0 | 0.0 | 1.7 | 0.00 | 0.00 | 0.65 | 86 | 995.6 |
| 20260507204936 | 62 | 68 | 0.9 | 1.7 | 0.00 | 0.00 | 0.65 | 86 | 995.6 |
| 20260507203916 | 62 | 68 | 1.7 | 3.5 | 0.00 | 0.00 | 0.65 | 86 | 995.6 |
| 20260507203405 | 62 | 293 | 1.7 | 3.5 | 0.00 | 0.00 | 0.65 | 86 | 995.8 |
| 20260507202349 | 62 | 45 | 1.7 | 3.5 | 0.00 | 0.00 | 0.65 | 86 | 996.3 |
| 20260507201326 | 62 | 90 | 1.7 | 5.2 | 0.00 | 0.00 | 0.65 | 86 | 996.3 |
| 20260507200815 | 62 | 45 | 1.7 | 5.2 | 0.00 | 0.00 | 0.65 | 86 | 996.2 |
| 20260507195754 | 62 | 45 | 0.9 | 5.2 | 0.00 | 0.00 | 0.65 | 86 | 996.2 |
| 20260507195254 | 62 | 113 | 2.6 | 5.2 | 0.00 | 0.00 | 0.65 | 86 | 996.1 |
| 20260507194224 | 63 | 45 | 1.7 | 7.8 | 0.00 | 0.00 | 0.65 | 85 | 996.2 |
| 20260507193714 | 62 | 68 | 1.7 | 9.6 | 0.00 | 0.00 | 0.65 | 85 | 996.1 |
| 20260507193204 | 62 | 68 | 4.3 | 9.6 | 0.00 | 0.00 | 0.65 | 86 | 996.1 |
| 20260507192653 | 62 | 68 | 3.5 | 6.1 | 0.00 | 0.00 | 0.65 | 86 | 996.0 |
| 20260507192144 | 62 | 45 | 1.7 | 6.1 | 0.00 | 0.00 | 0.65 | 86 | 995.7 |
| 20260507191635 | 62 | 68 | 1.7 | 7.0 | 0.00 | 0.00 | 0.65 | 86 | 995.6 |
| 20260507191124 | 62 | 113 | 3.5 | 7.0 | 0.00 | 0.00 | 0.65 | 86 | 995.5 |
| 20260507190117 | 62 | 23 | 1.7 | 6.1 | 0.00 | 0.00 | 0.65 | 86 | 995.3 |
| 20260507185554 | 62 | 270 | 1.7 | 7.0 | 0.00 | 0.00 | 0.65 | 86 | 995.5 |
| 20260507185043 | 63 | 0 | 2.6 | 7.0 | 0.00 | 0.00 | 0.65 | 86 | 996.0 |
| 20260507184532 | 63 | 90 | 2.6 | 9.6 | 0.00 | 0.00 | 0.65 | 85 | 995.9 |
| 20260507183002 | 63 | 68 | 2.6 | 5.2 | 0.00 | 0.00 | 0.65 | 86 | 995.6 |
| 20260507182452 | 62 | 45 | 1.7 | 7.0 | 0.00 | 0.00 | 0.65 | 86 | 995.6 |
| 20260507181939 | 62 | 68 | 1.7 | 7.0 | 0.00 | 0.00 | 0.65 | 86 | 995.8 |
| 20260507181430 | 62 | 23 | 2.6 | 9.6 | 0.00 | 0.00 | 0.65 | 86 | 996.1 |
| 20260507180411 | 62 | 68 | 1.7 | 7.0 | 0.00 | 0.00 | 0.65 | 87 | 996.1 |
| 20260507175902 | 62 | 158 | 2.6 | 7.0 | 0.00 | 0.00 | 0.65 | 87 | 996.1 |
| 20260507175352 | 62 | 23 | 3.5 | 7.8 | 0.00 | 0.00 | 0.65 | 87 | 996.3 |
| 20260507174846 | 62 | 23 | 3.5 | 7.8 | 0.00 | 0.00 | 0.65 | 87 | 996.4 |
| 20260507174331 | 62 | 68 | 4.3 | 9.6 | 0.00 | 0.00 | 0.65 | 87 | 996.5 |
| 20260507173826 | 62 | 68 | 2.6 | 9.6 | 0.00 | 0.00 | 0.65 | 87 | 996.2 |
| 20260507172801 | 62 | 135 | 3.5 | 9.6 | 0.00 | 0.00 | 0.65 | 87 | 995.9 |
| 20260507172250 | 62 | 338 | 1.7 | 9.6 | 0.00 | 0.00 | 0.65 | 87 | 995.6 |
| 20260507171740 | 62 | 158 | 2.6 | 9.6 | 0.00 | 0.00 | 0.65 | 87 | 995.8 |
| 20260507171230 | 62 | 180 | 3.5 | 9.6 | 0.00 | 0.00 | 0.65 | 87 | 995.5 |
| 20260507170209 | 62 | 68 | 1.7 | 7.8 | 0.00 | 0.00 | 0.65 | 88 | 995.5 |
| 20260507165700 | 62 | 23 | 2.6 | 7.8 | 0.00 | 0.00 | 0.65 | 88 | 995.5 |
| 20260507165149 | 62 | 338 | 4.3 | 9.6 | 0.00 | 0.00 | 0.65 | 88 | 995.4 |
| 20260507164639 | 62 | 23 | 3.5 | 9.6 | 0.00 | 0.00 | 0.65 | 88 | 995.3 |
| 20260507164132 | 62 | 90 | 3.5 | 7.8 | 0.00 | 0.00 | 0.65 | 88 | 995.4 |
| 20260507163619 | 62 | 68 | 3.5 | 9.6 | 0.00 | 0.00 | 0.65 | 88 | 995.7 |
| 20260507163110 | 62 | 45 | 2.6 | 11.3 | 0.00 | 0.00 | 0.65 | 88 | 995.7 |
| 20260507162559 | 62 | 68 | 3.5 | 11.3 | 0.00 | 0.00 | 0.65 | 88 | 995.7 |
| 20260507162049 | 62 | 45 | 3.5 | 9.6 | 0.00 | 0.00 | 0.65 | 88 | 995.7 |
| 20260507161539 | 62 | 68 | 4.3 | 7.0 | 0.00 | 0.00 | 0.65 | 89 | 995.7 |
| 20260507160007 | 62 | 68 | 3.5 | 9.6 | 0.00 | 0.00 | 0.65 | 89 | 996.0 |
| 20260507155458 | 62 | 23 | 2.6 | 9.6 | 0.00 | 0.00 | 0.65 | 89 | 995.9 |
| 20260507154437 | 62 | 23 | 3.5 | 6.1 | 0.00 | 0.00 | 0.65 | 89 | 996.3 |
| 20260507153927 | 62 | 90 | 1.7 | 7.0 | 0.00 | 0.00 | 0.65 | 89 | 996.1 |
| 20260507153417 | 62 | 68 | 2.6 | 7.0 | 0.00 | 0.00 | 0.65 | 89 | 996.4 |
| 20260507152907 | 62 | 45 | 1.7 | 7.0 | 0.00 | 0.00 | 0.65 | 89 | 996.5 |
| 20260507151847 | 62 | 68 | 1.7 | 9.6 | 0.00 | 0.00 | 0.65 | 90 | 997.0 |
| 20260507151337 | 62 | 68 | 4.3 | 9.6 | 0.00 | 0.00 | 0.65 | 90 | 997.1 |
| 20260507150826 | 62 | 68 | 0.9 | 6.1 | 0.00 | 0.00 | 0.65 | 90 | 996.9 |
| 20260507145256 | 61 | 68 | 3.5 | 7.8 | 0.00 | 0.00 | 0.65 | 90 | 997.6 |
| 20260507144236 | 61 | 45 | 2.6 | 7.8 | 0.00 | 0.00 | 0.65 | 91 | 997.0 |
| 20260507143726 | 61 | 45 | 3.5 | 7.8 | 0.00 | 0.00 | 0.65 | 91 | 996.8 |
| 20260507143215 | 61 | 68 | 1.7 | 7.0 | 0.00 | 0.00 | 0.65 | 91 | 996.5 |
| 20260507142705 | 61 | 135 | 1.7 | 7.8 | 0.00 | 0.00 | 0.65 | 92 | 996.3 |
| 20260507141644 | 61 | 338 | 1.7 | 5.2 | 0.00 | 0.00 | 0.65 | 92 | 996.2 |
| 20260507141135 | 60 | 113 | 1.7 | 5.2 | 0.00 | 0.00 | 0.65 | 92 | 996.6 |
| 20260507140626 | 60 | 68 | 1.7 | 6.1 | 0.00 | 0.00 | 0.65 | 93 | 996.5 |
| 20260507140114 | 60 | 68 | 1.7 | 6.1 | 0.00 | 0.00 | 0.65 | 93 | 996.4 |
| 20260507135605 | 60 | 68 | 1.7 | 7.0 | 0.00 | 0.00 | 0.65 | 93 | 996.7 |
| 20260507135059 | 60 | 45 | 1.7 | 7.0 | 0.00 | 0.00 | 0.65 | 93 | 996.4 |
| 20260507134544 | 60 | 0 | 2.6 | 7.0 | 0.00 | 0.00 | 0.65 | 93 | 996.5 |
| 20260507134034 | 60 | 68 | 2.6 | 5.2 | 0.00 | 0.00 | 0.65 | 93 | 996.5 |
| 20260507133524 | 60 | 45 | 1.7 | 6.1 | 0.00 | 0.00 | 0.65 | 93 | 996.6 |
| 20260507132504 | 60 | 45 | 1.7 | 7.8 | 0.00 | 0.00 | 0.65 | 93 | 997.0 |
| 20260507131953 | 60 | 68 | 2.6 | 7.8 | 0.00 | 0.00 | 0.65 | 93 | 997.5 |
| 20260507131444 | 60 | 68 | 2.6 | 7.8 | 0.00 | 0.00 | 0.65 | 93 | 997.9 |
| 20260507130933 | 60 | 68 | 2.6 | 11.3 | 0.00 | 0.00 | 0.65 | 93 | 997.7 |
| 20260507130428 | 60 | 23 | 3.5 | 11.3 | 0.00 | 0.00 | 0.65 | 93 | 997.7 |
| 20260507125916 | 60 | 90 | 1.7 | 7.8 | 0.00 | 0.00 | 0.65 | 93 | 997.2 |
| 20260507125402 | 59 | 0 | 3.5 | 7.8 | 0.00 | 0.00 | 0.65 | 92 | 997.0 |
| 20260507124343 | 59 | 45 | 1.7 | 12.2 | 0.00 | 0.00 | 0.65 | 93 | 996.8 |
| 20260507123832 | 59 | 113 | 3.5 | 12.2 | 0.00 | 0.00 | 0.65 | 93 | 996.7 |
| 20260507123322 | 59 | 68 | 2.6 | 9.6 | 0.00 | 0.00 | 0.65 | 93 | 996.3 |
| 20260507122812 | 59 | 135 | 3.5 | 9.6 | 0.00 | 0.00 | 0.65 | 93 | 996.6 |
| 20260507122306 | 59 | 338 | 2.6 | 9.6 | 0.00 | 0.00 | 0.65 | 94 | 996.6 |
| 20260507121751 | 58 | 68 | 2.6 | 9.6 | 0.00 | 0.00 | 0.65 | 94 | 996.4 |
| 20260507121241 | 58 | 113 | 4.3 | 9.6 | 0.00 | 0.00 | 0.65 | 94 | 996.5 |
| 20260507120221 | 58 | 45 | 5.2 | 9.6 | 0.00 | 0.00 | 0.65 | 95 | 996.5 |
| 20260507115711 | 59 | 90 | 2.6 | 9.6 | 0.00 | 0.00 | 0.65 | 95 | 995.9 |
| 20260507115201 | 59 | 0 | 2.6 | 9.6 | 0.00 | 0.00 | 0.65 | 95 | 995.7 |
| 20260507114651 | 58 | 338 | 3.5 | 9.6 | 0.00 | 0.00 | 0.65 | 95 | 995.5 |
| 20260507114144 | 58 | 45 | 3.5 | 7.8 | 0.00 | 0.00 | 0.65 | 95 | 995.2 |
| 20260507113631 | 58 | 248 | 2.6 | 9.6 | 0.00 | 0.00 | 0.65 | 95 | 995.0 |
| 20260507113121 | 58 | 68 | 3.5 | 9.6 | 0.00 | 0.00 | 0.65 | 95 | 995.5 |
| 20260507112610 | 58 | 338 | 1.7 | 9.6 | 0.00 | 0.00 | 0.65 | 95 | 994.9 |
| 20260507111549 | 58 | 113 | 3.5 | 9.6 | 0.00 | 0.00 | 0.65 | 95 | 994.4 |
| 20260507110529 | 58 | 45 | 2.6 | 12.2 | 0.00 | 0.00 | 0.65 | 95 | 995.2 |
| 20260507105509 | 58 | 90 | 4.3 | 9.6 | 0.00 | 0.00 | 0.65 | 95 | 995.6 |
| 20260507104959 | 58 | 45 | 3.5 | 9.6 | 0.00 | 0.00 | 0.65 | 95 | 995.8 |
| 20260507104449 | 58 | 23 | 3.5 | 9.6 | 0.00 | 0.00 | 0.65 | 95 | 996.1 |
| 20260507103939 | 58 | 45 | 3.5 | 9.6 | 0.00 | 0.00 | 0.65 | 95 | 995.9 |
| 20260507103429 | 58 | 113 | 3.5 | 9.6 | 0.00 | 0.00 | 0.65 | 95 | 996.3 |
| 20260507102408 | 58 | 0 | 3.5 | 9.6 | 0.00 | 0.00 | 0.65 | 95 | 996.1 |
| 20260507101858 | 58 | 90 | 3.5 | 9.6 | 0.00 | 0.00 | 0.65 | 95 | 995.9 |
| 20260507101349 | 58 | 45 | 3.5 | 9.6 | 0.00 | 0.00 | 0.65 | 95 | 995.3 |
| 20260507100838 | 58 | 90 | 3.5 | 7.8 | 0.00 | 0.00 | 0.65 | 94 | 994.7 |
| 20260507100328 | 58 | 23 | 3.5 | 7.8 | 0.00 | 0.00 | 0.65 | 94 | 995.0 |
| 20260507095817 | 58 | 315 | 3.5 | 7.8 | 0.00 | 0.00 | 0.65 | 94 | 994.2 |
| 20260507094758 | 58 | 68 | 3.5 | 9.6 | 0.00 | 0.00 | 0.65 | 94 | 995.2 |
| 20260507094247 | 59 | 23 | 3.5 | 9.6 | 0.00 | 0.00 | 0.65 | 94 | 995.4 |
| 20260507093737 | 59 | 113 | 3.5 | 9.6 | 0.00 | 0.00 | 0.65 | 94 | 995.4 |
| 20260507093227 | 59 | 90 | 3.5 | 9.6 | 0.00 | 0.00 | 0.65 | 94 | 995.2 |
| 20260507092717 | 59 | 90 | 3.5 | 9.6 | 0.00 | 0.00 | 0.65 | 93 | 995.5 |
| 20260507092206 | 59 | 315 | 3.5 | 7.8 | 0.00 | 0.00 | 0.65 | 93 | 995.0 |
| 20260507091701 | 60 | 68 | 3.5 | 9.6 | 0.00 | 0.00 | 0.65 | 93 | 994.6 |
| 20260507091146 | 60 | 0 | 3.5 | 9.6 | 0.00 | 0.00 | 0.65 | 93 | 995.4 |
| 20260507090638 | 60 | 23 | 2.6 | 9.6 | 0.00 | 0.00 | 0.65 | 93 | 995.3 |
| 20260507085616 | 61 | 23 | 6.1 | 7.8 | 0.00 | 0.00 | 0.65 | 93 | 996.3 |
| 20260507085106 | 61 | 45 | 1.7 | 7.0 | 0.00 | 0.00 | 0.65 | 93 | 995.0 |
| 20260507084555 | 62 | 90 | 0.9 | 3.5 | 0.00 | 0.00 | 0.65 | 92 | 994.7 |
| 20260507084046 | 62 | 135 | 0.0 | 1.7 | 0.00 | 0.00 | 0.65 | 92 | 993.6 |
| 20260507083537 | 62 | 135 | 0.9 | 5.2 | 0.00 | 0.00 | 0.65 | 92 | 993.4 |
| 20260507083025 | 62 | 315 | 0.9 | 7.0 | 0.00 | 0.00 | 0.65 | 92 | 994.4 |
| 20260507082515 | 62 | 45 | 1.7 | 7.8 | 0.00 | 0.00 | 0.65 | 92 | 997.1 |
| 20260507082010 | 62 | 315 | 1.7 | 7.8 | 0.00 | 0.00 | 0.65 | 91 | 998.0 |
| 20260507081455 | 63 | 68 | 2.6 | 9.6 | 0.00 | 0.00 | 0.65 | 91 | 998.2 |
| 20260507080945 | 63 | 68 | 2.6 | 11.3 | 0.00 | 0.00 | 0.65 | 91 | 998.3 |
| 20260507080434 | 63 | 45 | 4.3 | 11.3 | 0.00 | 0.00 | 0.65 | 91 | 998.3 |
| 20260507075414 | 63 | 45 | 3.5 | 12.2 | 0.00 | 0.00 | 0.65 | 91 | 997.7 |
| 20260507074904 | 63 | 68 | 5.2 | 12.2 | 0.00 | 0.00 | 0.65 | 91 | 997.6 |
| 20260507072823 | 63 | 68 | 3.5 | 12.2 | 0.00 | 0.00 | 0.65 | 92 | 997.0 |
| 20260507072313 | 63 | 45 | 5.2 | 12.2 | 0.00 | 0.00 | 0.65 | 93 | 997.2 |
| 20260507071803 | 63 | 45 | 7.0 | 11.3 | 0.00 | 0.00 | 0.65 | 94 | 997.1 |
| 20260507071254 | 63 | 68 | 3.5 | 12.2 | 0.00 | 0.00 | 0.65 | 94 | 996.5 |
| 20260507070743 | 63 | 45 | 3.5 | 12.2 | 0.00 | 0.00 | 0.65 | 95 | 996.2 |
| 20260507065724 | 63 | 90 | 2.6 | 9.6 | 0.00 | 0.00 | 0.65 | 96 | 995.7 |
| 20260507065212 | 63 | 68 | 2.6 | 9.6 | 0.00 | 0.00 | 0.65 | 96 | 996.2 |
| 20260507064702 | 63 | 0 | 3.5 | 11.3 | 0.00 | 0.00 | 0.65 | 96 | 996.6 |
| 20260507064152 | 63 | 45 | 2.6 | 13.9 | 0.00 | 0.00 | 0.65 | 96 | 996.3 |
| 20260507063642 | 63 | 68 | 6.1 | 13.9 | 0.00 | 0.00 | 0.65 | 96 | 996.8 |
| 20260507063132 | 63 | 90 | 5.2 | 13.9 | 0.00 | 0.00 | 0.65 | 96 | 996.6 |
| 20260507062622 | 63 | 45 | 6.1 | 9.6 | 0.00 | 0.00 | 0.65 | 97 | 996.3 |
| 20260507062111 | 63 | 90 | 3.5 | 9.6 | 0.00 | 0.00 | 0.65 | 97 | 996.2 |
| 20260507061602 | 63 | 293 | 3.5 | 9.6 | 0.00 | 0.00 | 0.65 | 97 | 995.9 |
| 20260507061051 | 63 | 68 | 3.5 | 9.6 | 0.00 | 0.00 | 0.65 | 97 | 995.9 |
| 20260507060542 | 63 | 68 | 1.7 | 9.6 | 0.00 | 0.00 | 0.65 | 97 | 995.6 |
| 20260507060031 | 63 | 45 | 1.7 | 5.2 | 0.00 | 0.00 | 0.65 | 97 | 996.1 |
| 20260507055521 | 63 | 68 | 2.6 | 5.2 | 0.00 | 0.00 | 0.65 | 97 | 995.8 |
| 20260507055011 | 63 | 135 | 1.7 | 3.5 | 0.00 | 0.00 | 0.65 | 97 | 996.0 |
| 20260507054500 | 64 | 135 | 0.9 | 6.1 | 0.00 | 0.00 | 0.65 | 97 | 995.5 |
| 20260507053446 | 64 | 203 | 0.9 | 1.7 | 0.00 | 0.00 | 0.65 | 97 | 995.4 |
| 20260507052829 | 64 | 23 | 1.7 | 5.2 | 0.01 | 0.71 | 0.65 | 97 | 995.8 |
| 20260507052319 | 64 | 68 | 1.7 | 5.2 | 0.01 | 0.71 | 0.65 | 97 | 996.1 |
| 20260507051808 | 64 | 45 | 1.7 | 5.2 | 0.01 | 0.71 | 0.65 | 97 | 996.3 |
| 20260507051258 | 64 | 0 | 1.7 | 5.2 | 0.01 | 0.71 | 0.65 | 97 | 996.5 |
| 20260507050749 | 64 | 68 | 2.6 | 3.5 | 0.02 | 0.71 | 0.65 | 97 | 996.7 |
| 20260507050238 | 64 | 68 | 2.6 | 3.5 | 0.02 | 0.71 | 0.65 | 97 | 996.7 |
| 20260507045728 | 64 | 45 | 1.7 | 5.2 | 0.04 | 0.71 | 0.65 | 97 | 996.5 |
| 20260507045218 | 64 | 23 | 0.9 | 5.2 | 0.05 | 0.71 | 0.65 | 97 | 996.7 |
| 20260507043647 | 64 | 90 | 1.7 | 3.5 | 0.06 | 0.70 | 0.64 | 97 | 997.3 |
| 20260507043137 | 64 | 90 | 0.9 | 1.7 | 0.06 | 0.70 | 0.64 | 97 | 997.3 |
| 20260507042632 | 64 | 68 | 0.0 | 1.7 | 0.07 | 0.70 | 0.64 | 97 | 997.1 |
| 20260507042117 | 64 | 68 | 0.0 | 1.7 | 0.07 | 0.70 | 0.64 | 96 | 997.3 |
| 20260507041607 | 64 | 23 | 0.9 | 3.5 | 0.14 | 0.70 | 0.64 | 96 | 997.6 |
| 20260507041057 | 64 | 180 | 0.9 | 3.5 | 0.24 | 0.69 | 0.63 | 96 | 997.9 |
| 20260507040547 | 64 | 113 | 0.9 | 3.5 | 0.44 | 0.69 | 0.63 | 96 | 998.0 |
| 20260507035526 | 64 | 113 | 0.9 | 1.7 | 0.64 | 0.67 | 0.61 | 96 | 997.2 |
| 20260507035018 | 64 | 90 | 0.9 | 3.5 | 0.63 | 0.66 | 0.60 | 96 | 997.0 |
| 20260507034513 | 64 | 68 | 0.0 | 3.5 | 0.61 | 0.65 | 0.59 | 96 | 997.1 |
| 20260507033956 | 64 | 248 | 0.0 | 1.7 | 0.60 | 0.64 | 0.58 | 96 | 996.9 |
| 20260507033446 | 64 | 68 | 0.9 | 1.7 | 0.60 | 0.64 | 0.58 | 96 | 997.1 |
| 20260507032936 | 64 | 68 | 0.9 | 3.5 | 0.60 | 0.64 | 0.58 | 96 | 997.4 |
| 20260507031915 | 65 | 90 | 2.6 | 9.6 | 0.58 | 0.61 | 0.56 | 95 | 998.2 |
| 20260507031405 | 65 | 90 | 1.7 | 13.9 | 0.53 | 0.56 | 0.50 | 95 | 998.1 |
| 20260507030344 | 66 | 45 | 5.2 | 13.9 | 0.15 | 0.18 | 0.12 | 92 | 1000.1 |
| 20260507025834 | 67 | 68 | 5.2 | 11.3 | 0.02 | 0.05 | 0.05 | 90 | 999.2 |
| 20260507025325 | 72 | 68 | 5.2 | 11.3 | 0.01 | 0.04 | 0.04 | 87 | 999.4 |